Tracking 19246 objects as of 20-Aug-2018
HD Live streaming from Space Station
objects crossing your sky now

WEOS

Track WEOS now!
10-day predictions
WEOS is classified as:


NORAD ID: 27599
Int'l Code: 2002-056C
Perigee: 792.9 km
Apogee: 808.7 km
Inclination: 98.4 °
Period: 100.7 minutes
Semi major axis: 7171 km
RCS: 0.3299 m2 (medium)
Launch date: December 14, 2002
Source: Japan (JPN)
Launch site: TANEGASHIMA SPACE CENTER (TNSTA)
aabbcc
Your satellite tracking list
Your tracking list is empty




NASA's NSSDC Master Catalog

Two Line Element Set (TLE):
1 27599U 02056C   18232.44378428 -.00000010  00000-0  12701-4 0  9998
2 27599  98.4475 183.5590 0011029  61.9328 298.2968 14.29429682817977
Source of the keplerian elements: AFSPC